Starlink 33545

operational
NORAD ID: 62101 Int'l Des: 2024-220 Owner: SPXS Country: US Constellation: starlink
LEOCIRCULAR

关于 Starlink 33545

正在加载描述...

实时位置

正在加载3D地球...

即将过境

高度历史

Altitude vs Time

uPlot chart will show altitude changes over time

两行轨道根数

1 62101U 24220P 25304.74451406 .00025260 00000-0 92485-3 0 9991
2 62101 43.0006 213.5096 0000348 253.7732 106.3081 15.27561351 53301
Epoch: Oct 31, 2025 • Age: 15 hours

当前状态

高度 493.3 km
速度 7.62 km/s
星下点 -36.25°S, 21.98°W
发射日期 Nov 25, 2024
运行时间 0.9 years
类型 internet

技术详情

分类 Payload
质量 530.00 kg
干质量 500.00 kg
总质量 530.00 kg
长度 0.30 m
直径 4.10 m
跨度 29.00 m
形状 Box + pan
制造商 SPXS
平台类型 Starlink V2MO
阶段状态 In Orbit
所有者/国家 SPXS/US

大型星座

Loading constellations...